Regional Weather Roundup
Issued by NWS

Home | Current Version | Previous Version | Graphics & Text | Print | Product List | Glossary On
Versions: 1 2 3 4 5 6 7 8 9 10 11 12 13 14 15 16 17 18 19 20 21 22 23 24 25 26 27 28 29 30 31 32 33 34 35 36 37 38 39 40 41 42 43 44 45 46 47 48 49 50
000
ASUS43 KLMK 261002
RWRKY
KENTUCKY REGIONAL WEATHER ROUNDUP
NATIONAL WEATHER SERVICE LOUISVILLE KY
600 AM EDT WED JUL 26 2017

NOTE "FAIR" INDICATES FEW OR NO CLOUDS BELOW 12,000 FEET
WITH NO SIGNIFICANT WEATHER AND/OR OBSTRUCTIONS TO VISIBILITY.

KYZ001>023-026-027-061>063-070>075-261100-
WESTERN AND SOUTH CENTRAL KENTUCKY

CITY           SKY/WX    TMP DP  RH WIND       PRES   REMARKS
PADUCAH        CLEAR     75  73  93 CALM      30.07F FOG
HENDERSON      PTCLDY    73  69  87 E3        30.09F
OWENSBORO      MOCLDY    73  67  81 E5        30.10S
HOPKINSVILLE   NOT AVBL
BOWLING GREEN  CLEAR     72  69  90 CALM      30.11S
GLASGOW        NOT AVBL
$$

KYZ024-025-028>034-038-045-046-053-261100-
NORTH CENTRAL KENTUCKY

CITY           SKY/WX    TMP DP  RH WIND       PRES   REMARKS
LOUISVILLE/SDF MOCLDY    70  62  76 E5        30.13F
LOUISVILLE/LOU PTCLDY    69  64  84 NE3       30.14F
FORT KNOX      NOT AVBL
$$

KYZ035>037-039>044-047>052-055>060-089>105-261100-
NORTHEAST KENTUCKY

CITY           SKY/WX    TMP DP  RH WIND       PRES   REMARKS
LEXINGTON      CLEAR     63  58  83 NE5       30.17R
COVINGTON      CLEAR     62  60  93 SE5       30.15F
FRANKFORT      CLEAR     63  59  87 E5        30.14S
$$

KYZ054-064>069-076>088-106>120-261100-
SOUTHEAST KENTUCKY

CITY           SKY/WX    TMP DP  RH WIND       PRES   REMARKS
JACKSON        CLEAR     62  59  90 CALM      30.17R
LONDON         CLEAR     63  60  90 CALM      30.16R
SOMERSET       CLEAR     64  64 100 CALM      30.16R
MIDDLESBORO    FOG       65  65 100 NW3       30.17R VSB 3/4
MONTICELLO     MOSUNNY   65  64  97 VRB3      30.16R
$$




USA.gov is the U.S. government's official web portal to all federal, state and local government web resources and services.